{"data":{"norad_id":81995,"intl_designator":"","name":"UNKNOWN","alt_names":[],"object_type":"UNKNOWN","status":"UNKNOWN","operator":null,"country":null,"launch_date":null,"launch_site_code":null,"launch_vehicle":null,"mission":null,"orbit_class":"UNKNOWN","rcs_meters":null,"size_class":null,"mass_kg":null,"dimensions":null,"purposes":[],"wikipedia_slug":null,"has_3d_model":false,"image_url":null,"decayed_at":null,"tle_current":{"epoch":"2026-05-23T03:54:13.365216Z","epoch_age_seconds":233232,"freshness":"STALE","line1":"1 81995U          26143.16265469  .00001670  00000+0  33140-3 0  9994","line2":"2 81995  65.7483  60.9507 0510255 217.5876 138.8505 14.05728771626903","mean_motion":14.05728771,"eccentricity":0.0510255,"inclination_deg":65.7483,"raan_deg":60.9507,"arg_perigee_deg":217.5876,"mean_anomaly_deg":138.8505,"bstar":0.0003314,"rev_number":62690,"period_min":102.4379688107,"perigee_km":503.97962890621,"apogee_km":1244.0699939229,"semimajor_km":7252.1618114145,"source":"CELESTRAK","updated_at":"2026-05-25T13:38:11.089895Z"}}}